GW3457 Weather Reports


Display with metric or nautical units.
time (UTC)temp
F
wind
direction
speed
MPH
gust
MPH
rain 1hr
in
rain 24hr
in
rain mn
in
humidity
%
barometer
mb
20260507120040 51 0 1.0 4.0 0.00 0.17 0.00 59 1013.6
20260507114607 50 68 0.0 3.0 0.00 0.20 0.00 62 1013.8
20260507113047 50 19 0.0 2.0 0.00 0.20 0.00 65 1013.7
20260507111545 50 0 0.0 2.0 0.00 0.20 0.00 63 1013.6
20260507110046 50 360 0.0 2.0 0.00 0.20 0.00 65 1013.3
20260507104549 50 360 1.0 4.0 0.00 0.20 0.00 59 1013.2
20260507103048 50 0 0.0 2.0 0.00 0.20 0.00 64 1012.9
20260507101548 50 360 0.0 1.0 0.00 0.20 0.00 66 1012.8
20260507100047 50 0 0.0 1.0 0.00 0.20 0.00 65 1012.8
20260507094544 51 0 0.0 1.0 0.00 0.20 0.00 65 1012.7
20260507093044 51 0 0.0 3.0 0.00 0.20 0.00 66 1012.5
20260507091544 51 0 0.0 2.0 0.00 0.20 0.00 68 1012.7
20260507090047 51 0 0.0 1.0 0.00 0.20 0.00 69 1012.6
20260507084547 51 0 0.0 3.0 0.00 0.20 0.00 66 1012.4
20260507083044 52 360 0.0 2.0 0.00 0.20 0.00 68 1012.4
20260507081543 52 40 0.0 2.0 0.00 0.20 0.00 67 1012.5
20260507080049 52 46 2.0 5.0 0.00 0.20 0.00 65 1012.3
20260507074546 52 34 1.0 6.0 0.00 0.20 0.00 66 1012.2
20260507073046 52 50 3.0 7.0 0.00 0.20 0.00 69 1012.0
20260507071545 53 0 0.0 3.0 0.00 0.20 0.00 74 1012.2
20260507070106 53 0 0.0 0.0 0.00 0.20 0.00 74 1012.1
20260507064549 53 0 0.0 3.0 0.00 0.20 0.00 72 1012.1
20260507063055 53 76 1.0 5.0 0.00 0.20 0.00 72 1012.2
20260507061548 54 71 0.0 4.0 0.00 0.20 0.00 73 1012.3
20260507060049 54 74 1.0 3.0 0.00 0.20 0.00 73 1012.3
20260507054545 54 82 0.0 3.0 0.00 0.20 0.00 75 1012.2
20260507053047 54 105 0.0 3.0 0.00 0.20 0.00 75 1012.0
20260507051551 54 0 0.0 1.0 0.00 0.20 0.00 78 1011.9
20260507050047 54 0 0.0 2.0 0.00 0.20 0.00 77 1011.9
20260507044552 54 0 0.0 3.0 0.00 0.20 0.00 76 1011.8
20260507043050 54 0 0.0 4.0 0.00 0.20 0.00 76 1011.9
20260507041551 54 0 0.0 5.0 0.00 0.20 0.00 75 1012.0
20260507040051 54 44 0.0 6.0 0.00 0.20 0.00 76 1012.1
20260507034546 55 95 0.0 3.0 0.00 0.20 0.20 75 1012.0
20260507033046 55 69 0.0 3.0 0.00 0.20 0.20 75 1012.0
20260507031546 55 0 0.0 4.0 0.00 0.20 0.20 75 1011.6
20260507030051 55 0 1.0 7.0 0.00 0.20 0.20 76 1011.9
20260507024548 55 184 1.0 9.0 0.00 0.20 0.20 75 1011.7
20260507023038 55 53 3.0 10.0 0.00 0.20 0.20 75 1011.9
20260507021539 55 350 4.0 10.0 0.00 0.20 0.20 77 1011.2
20260507020051 56 19 1.0 4.0 0.00 0.20 0.20 80 1011.8
20260507014551 56 0 1.0 5.0 0.00 0.20 0.20 79 1011.6
20260507013056 56 83 1.0 8.0 0.00 0.20 0.20 78 1011.3
20260507011539 57 347 0.0 4.0 0.00 0.20 0.20 79 1011.2
20260507010101 57 238 2.0 6.0 0.00 0.20 0.20 77 1011.5
20260507004548 58 309 2.0 8.0 0.00 0.20 0.20 77 1011.2
20260507003049 58 154 1.0 10.0 0.00 0.20 0.20 75 1011.8
20260507001553 59 152 4.0 8.0 0.00 0.20 0.20 74 1011.3
20260507000051 59 206 5.0 13.0 0.00 0.20 0.20 73 1011.2
20260506234541 60 98 3.0 10.0 0.00 0.20 0.20 73 1010.9
20260506233101 61 252 2.0 9.0 0.00 0.20 0.20 72 1010.7
20260506231550 61 0 3.0 7.0 0.00 0.20 0.20 72 1010.1
20260506230047 62 147 4.0 13.0 0.00 0.20 0.20 73 1009.9
20260506224542 62 242 5.0 12.0 0.00 0.20 0.20 74 1009.7
20260506223051 63 174 4.0 12.0 0.00 0.20 0.20 75 1009.7
20260506221540 63 232 5.0 11.0 0.00 0.20 0.20 74 1009.5
20260506220049 64 180 4.0 15.0 0.00 0.20 0.20 74 1009.3
20260506214546 64 0 2.0 7.0 0.01 0.20 0.20 77 1008.9
20260506213042 64 153 5.0 12.0 0.01 0.20 0.20 78 1008.5
20260506211541 64 198 3.0 7.0 0.01 0.20 0.20 82 1008.4
20260506210048 64 360 3.0 8.0 0.01 0.20 0.20 83 1008.2
20260506204549 64 213 4.0 11.0 0.00 0.19 0.19 83 1008.0
20260506203048 64 72 5.0 13.0 0.00 0.19 0.19 83 1008.0
20260506201546 66 21 3.0 8.0 0.00 0.19 0.19 82 1007.8
20260506200046 67 0 0.0 2.0 0.00 0.19 0.19 85 1007.5
20260506194553 68 10 0.0 3.0 0.00 0.19 0.19 80 1007.5
20260506193046 68 5 0.0 3.0 0.00 0.19 0.19 79 1007.4
20260506191546 68 0 2.0 4.0 0.00 0.19 0.19 80 1007.5
20260506190046 67 12 1.0 3.0 0.00 0.19 0.19 82 1007.6
20260506184544 67 0 1.0 3.0 0.00 0.19 0.19 80 1007.6
20260506183050 66 0 0.0 3.0 0.00 0.19 0.19 84 1007.6
20260506181549 65 269 1.0 4.0 0.00 0.19 0.19 85 1007.9
20260506180055 64 0 0.0 2.0 0.00 0.19 0.19 86 1007.9
20260506174550 64 49 1.0 3.0 0.00 0.19 0.19 87 1007.9
20260506173103 63 0 0.0 3.0 0.00 0.19 0.19 87 1008.0
20260506171551 63 235 0.0 4.0 0.00 0.19 0.19 87 1007.8
20260506170058 63 0 0.0 3.0 0.00 0.19 0.19 88 1008.0
20260506164606 63 271 0.0 2.0 0.00 0.19 0.19 86 1007.6
20260506163047 63 0 0.0 3.0 0.00 0.19 0.19 86 1007.7
20260506161546 63 217 1.0 5.0 0.00 0.19 0.19 84 1007.6
20260506160050 63 181 2.0 6.0 0.00 0.19 0.19 85 1007.5
20260506154551 63 228 2.0 8.0 0.00 0.19 0.19 85 1007.5
20260506153045 62 225 2.0 6.0 0.00 0.19 0.19 87 1007.5
20260506151549 62 213 2.0 7.0 0.00 0.19 0.19 88 1007.6
20260506150051 61 229 3.0 8.0 0.01 0.19 0.19 88 1007.4
20260506144549 61 230 5.0 9.0 0.03 0.19 0.19 89 1007.8
20260506143046 60 167 2.0 6.0 0.07 0.19 0.19 90 1007.4
20260506141606 60 172 0.0 5.0 0.08 0.19 0.19 91 1007.5
20260506140048 59 149 0.0 4.0 0.07 0.18 0.18 90 1007.8
20260506134545 59 146 0.0 7.0 0.08 0.16 0.16 90 1008.1
20260506133046 59 233 3.0 5.0 0.06 0.12 0.12 89 1008.1
20260506131548 59 0 1.0 4.0 0.07 0.11 0.11 89 1007.8
20260506130048 59 161 1.0 4.0 0.08 0.11 0.11 89 1007.7
20260506124548 59 175 0.0 2.0 0.05 0.08 0.08 89 1007.9
20260506123049 59 217 0.0 2.0 0.04 0.06 0.06 88 1008.0
20260506121555 59 0 1.0 3.0 0.03 0.04 0.04 87 1008.0